Regional Weather Roundup
Issued by NWS Little Rock, AR

Home | Current Version | Previous Version | Graphics & Text | Print | Product List | Glossary On
Versions: 1 2 3 4 5 6 7 8 9 10 11 12 13 14 15 16 17 18 19 20 21 22 23 24 25 26 27
000
ASUS44 KLZK 040805
RWRLZK

WEATHER ROUNDUP FOR ARKANSAS
NATIONAL WEATHER SERVICE LITTLE ROCK AR
300 AM CDT WED MAY 04 2016

NOTE: "FAIR" INDICATES FEW OR NO CLOUDS BELOW 12,000 FEET WITH NO
SIGNIFICANT WEATHER AND/OR OBSTRUCTIONS TO VISIBILITY.

ARZ001-003-010-029-040900-
NORTHWEST ARKANSAS

CITY           SKY/WX    TMP DP  RH WIND       PRES   REMARKS
FAYETTEVILLE   CLEAR     44  43  96 S8        29.99F
FORT SMITH     CLEAR     52  45  77 W6        30.00F
HARRISON       PTCLDY    51  40  65 CALM      29.96F
BENTONVILLE    CLEAR    N/A N/A N/A SW3       29.98F
ROGERS         PTCLDY    50  44  80 SW8       29.98F
SILOAM SPGS    CLEAR     48  37  66 SW3       30.00S
HIGHFILL       PTCLDY    51  45  79 SW8       29.98F
$$

ARZ004-005-016-040900-
NORTH CENTRAL ARKANSAS

CITY           SKY/WX    TMP DP  RH WIND       PRES   REMARKS
BATESVILLE     PTCLDY    46  43  87 W3        29.96F
FLIPPIN        CLEAR    N/A N/A N/A SW3       29.92F
MTN HOME       CLEAR     48  42  80 SW3       29.94F
$$

ARZ040-041-040900-
WEST CENTRAL ARKANSAS

CITY           SKY/WX    TMP DP  RH WIND       PRES   REMARKS
MENA           CLEAR     50  46  87 W6        30.02F
MOUNT IDA      CLEAR     47  45  93 CALM      29.98F
$$

ARZ009-017-025-026-028-040900-
NORTHEAST ARKANSAS

CITY           SKY/WX    TMP DP  RH WIND       PRES   REMARKS
CORNING          N/A     50  50 100 W7        29.92F
JONESBORO      CLEAR     53  47  79 W6        29.93F
NEWPORT        PTCLDY    53  47  80 W6        29.96F
WALNUT RIDGE   PTCLDY    52  43  71 W5        29.93F
BLYTHEVILLE    CLEAR     53  50  89 SW6       29.92F
$$

ARZ022-023-033-042-044-040900-
CENTRAL ARKANSAS

CITY           SKY/WX    TMP DP  RH WIND       PRES   REMARKS
LITTLE ROCK    CLEAR     53  48  83 W8        29.98F
N LITTLE ROCK    N/A     55  49  82 W3        29.97F
JACKSONVILLE   CLEAR     50  49  94 W6        29.97F
SEARCY         CLEAR     46  46 100 CALM      29.98F
HOT SPRINGS    CLEAR     50  48  93 W3        30.00F
RUSSELLVILLE   CLEAR     48  46  93 CALM      29.98F
$$

ARZ036-040900-
EAST ARKANSAS

CITY           SKY/WX    TMP DP  RH WIND       PRES   REMARKS
WEST MEMPHIS   CLEAR     54  50  86 CALM      29.93F
$$

ARZ050-053-066-070-073-040900-
SOUTHWEST ARKANSAS

CITY           SKY/WX    TMP DP  RH WIND       PRES   REMARKS
ARKADELPHIA    FAIR      56  55  96 CALM      30.01S
CAMDEN         CLOUDY    52  48  87 CALM      30.01S
TEXARKANA      PTCLDY    54  50  86 CALM      30.02F
EL DORADO      CLOUDY    52  51  97 CALM      30.01F
DE QUEEN       CLEAR     48  48 100 CALM      30.01F FOG
$$

ARZ056-057-069-040900-
SOUTHEAST ARKANSAS

CITY           SKY/WX    TMP DP  RH WIND       PRES   REMARKS
PINE BLUFF     CLEAR     53  49  86 W6        29.99S
STUTTGART      CLEAR     55  48  76 W7        29.97F
MONTICELLO     CLEAR     54  50  86 W6        29.98F

$$






USA.gov is the U.S. government's official web portal to all federal, state and local government web resources and services.